Back to catalog

FENGYUN 1C DEB

AliveSSO
NORAD 30363·DEBRIS·🇨🇳 China

Launched May 10, 1999 from Taiyuan Satellite Launch Center

Loading…

Next Passes (next 24 hours)

TLE

FreshSource: Space-Track

Epoch: Sep 14, 2026, 11:51 UTC

1 30363U 99025ACA 26257.49393066  .00001488  00000-0  72385-3 0  9991
2 30363  99.0171 337.9079 0075944 334.6962  25.0501 14.18304991  7149

Track FENGYUN 1C DEB in real time with AllMySat

Download on the App Store